ANZ706 NZAA-PGUM

Flight info

Callsign ANZ706
Flight time N/A
Altitude 34000
Route DUGAN A597 MINET/N0448F360 A597 VIRAR DCT LAMAK DCT 20S165E 15S163E DCT ENOUS DCT 10S160E/N0447F380 06S157E 05S156E 00N153E 05N150E 10N147E DCT UNZ
Aircraft A320/M-SDE3FGHIRWY/LB1

Departure

Time 2026-05-04 09:03
Airport Auckland International Airport (NZAA)

Arrival

Time N/A
Airport Antonio B. Won Pat International Airport (PGUM)
Time Latitude Longitude Altitude Speed Heading
2026-05-04 08:25 -37.00495 174.77889 31 ft 0 kts 339°
2026-05-04 08:54 -37.00579 174.77991 29 ft 0 kts 251°
2026-05-04 08:57 -37.00616 174.77857 25 ft 7 kts 250°
2026-05-04 09:01 -37.01338 174.77446 25 ft 10 kts 251°
2026-05-04 09:01 -37.01360 174.77360 30 ft 11 kts 251°
2026-05-04 09:01 -37.01387 174.77261 29 ft 13 kts 251°
2026-05-04 09:01 -37.01417 174.77155 29 ft 10 kts 250°
2026-05-04 09:02 -37.01473 174.77105 28 ft 11 kts 194°
2026-05-04 09:02 -37.01555 174.77084 26 ft 13 kts 188°
2026-05-04 09:02 -37.01609 174.77153 29 ft 14 kts 83°
2026-05-04 09:02 -37.01578 174.77272 27 ft 15 kts 72°
2026-05-04 09:03 -37.01503 174.77545 26 ft 69 kts 71°
2026-05-04 09:03 -37.01263 174.78415 28 ft 138 kts 71°
2026-05-04 09:03 -37.00901 174.79730 286 ft 168 kts 71°
2026-05-04 09:03 -37.00545 174.81108 1104 ft 166 kts 75°
2026-05-04 09:04 -37.00223 174.82504 1835 ft 174 kts 72°
2026-05-04 09:04 -36.99805 174.84008 2132 ft 193 kts 71°
2026-05-04 09:04 -36.99321 174.85679 2298 ft 217 kts 70°
2026-05-04 09:04 -36.98782 174.87541 2573 ft 240 kts 70°
2026-05-04 09:05 -36.98203 174.89564 3156 ft 251 kts 70°
2026-05-04 09:05 -36.97613 174.91636 3951 ft 254 kts 70°
2026-05-04 09:05 -36.97023 174.93727 4764 ft 257 kts 70°
2026-05-04 09:05 -36.96431 174.95842 5538 ft 260 kts 70°
2026-05-04 09:06 -36.95572 174.97828 6284 ft 263 kts 49°
2026-05-04 09:07 -36.84150 174.92827 10404 ft 324 kts 320°
2026-05-04 09:08 -36.82419 174.90901 10655 ft 340 kts 319°
2026-05-04 09:08 -36.80675 174.88882 11200 ft 346 kts 318°
2026-05-04 09:08 -36.78924 174.86810 11823 ft 348 kts 317°
2026-05-04 09:08 -36.77162 174.84711 12454 ft 351 kts 318°
2026-05-04 09:09 -36.75393 174.82607 13058 ft 353 kts 318°
2026-05-04 09:09 -36.73631 174.80521 13640 ft 355 kts 318°
2026-05-04 09:09 -36.71835 174.78411 14197 ft 358 kts 318°
2026-05-04 09:09 -36.70014 174.76280 14763 ft 360 kts 319°
2026-05-04 09:10 -36.68183 174.74144 15314 ft 362 kts 319°
2026-05-04 09:10 -36.66340 174.71994 15843 ft 364 kts 319°
2026-05-04 09:10 -36.64501 174.69849 16369 ft 366 kts 319°
2026-05-04 09:10 -36.62644 174.67686 16853 ft 369 kts 319°
2026-05-04 09:11 -36.60763 174.65497 17354 ft 371 kts 319°
2026-05-04 09:11 -36.58877 174.63303 17838 ft 373 kts 319°
2026-05-04 09:11 -36.56972 174.61087 18319 ft 375 kts 319°
2026-05-04 09:11 -36.55067 174.58874 18796 ft 377 kts 319°
2026-05-04 09:12 -36.53146 174.56645 19280 ft 380 kts 319°
2026-05-04 09:12 -36.51876 174.55172 19595 ft 381 kts 319°
2026-05-04 09:14 -36.35407 174.44866 22603 ft 391 kts 341°
2026-05-04 09:14 -36.32856 174.43735 22986 ft 393 kts 341°
2026-05-04 09:14 -36.30281 174.42596 23375 ft 395 kts 341°
2026-05-04 09:14 -36.27697 174.41457 23750 ft 397 kts 341°
2026-05-04 09:15 -36.25087 174.40312 24109 ft 399 kts 341°
2026-05-04 09:15 -36.22474 174.39166 24473 ft 401 kts 341°
2026-05-04 09:15 -36.19843 174.38007 24836 ft 402 kts 341°
2026-05-04 09:15 -36.17209 174.36845 25192 ft 404 kts 341°
2026-05-04 09:17 -35.95715 174.27405 27773 ft 417 kts 339°
2026-05-04 09:18 -35.92972 174.26212 28084 ft 418 kts 339°
2026-05-04 09:18 -35.90233 174.25021 28390 ft 420 kts 339°
2026-05-04 09:18 -35.87480 174.23822 28687 ft 421 kts 339°
2026-05-04 09:18 -35.84714 174.22614 28981 ft 422 kts 339°
2026-05-04 09:19 -35.81948 174.21406 29363 ft 421 kts 338°
2026-05-04 09:19 -35.79190 174.20204 29786 ft 419 kts 338°
2026-05-04 09:19 -35.76454 174.19012 30190 ft 417 kts 338°
2026-05-04 09:19 -35.73731 174.17830 30576 ft 416 kts 338°
2026-05-04 09:20 -35.71003 174.16648 30973 ft 414 kts 338°
2026-05-04 09:20 -35.68295 174.15475 31378 ft 413 kts 338°
2026-05-04 09:20 -35.65593 174.14304 31802 ft 411 kts 338°
2026-05-04 09:20 -35.62919 174.13143 32211 ft 408 kts 338°
2026-05-04 09:21 -35.60242 174.11984 32596 ft 407 kts 337°
2026-05-04 09:21 -35.57579 174.10834 32989 ft 405 kts 337°
2026-05-04 09:21 -35.54930 174.09690 33383 ft 403 kts 337°
2026-05-04 09:21 -35.52303 174.08553 33761 ft 401 kts 337°
2026-05-04 09:22 -35.49690 174.07423 34143 ft 399 kts 337°
2026-05-04 09:22 -35.47119 174.06312 34453 ft 398 kts 337°
2026-05-04 09:22 -35.41856 174.04024 34551 ft 406 kts 337°
2026-05-04 09:23 -35.36542 174.01722 34550 ft 410 kts 337°
2026-05-04 09:23 -35.31167 173.99422 34549 ft 410 kts 337°
2026-05-04 09:25 -35.09645 173.90219 34551 ft 412 kts 338°
2026-05-04 09:26 -35.04239 173.87904 34551 ft 412 kts 338°
2026-05-04 09:26 -34.98835 173.85599 34552 ft 412 kts 338°
2026-05-04 09:27 -34.93418 173.83296 34549 ft 412 kts 338°
2026-05-04 09:27 -34.88020 173.80993 34548 ft 412 kts 338°
2026-05-04 09:28 -34.82611 173.78704 34545 ft 413 kts 338°
2026-05-04 09:28 -34.77199 173.76406 34546 ft 413 kts 338°
2026-05-04 09:29 -34.71783 173.74111 34546 ft 412 kts 338°
2026-05-04 09:29 -34.66375 173.71824 34544 ft 412 kts 338°
2026-05-04 09:30 -34.60978 173.69548 34543 ft 412 kts 338°
2026-05-04 09:30 -34.55613 173.67290 34541 ft 411 kts 338°
2026-05-04 09:31 -34.50232 173.65025 34540 ft 411 kts 338°
2026-05-04 09:31 -34.44836 173.62745 34533 ft 411 kts 338°
2026-05-04 09:32 -34.39435 173.60480 34530 ft 411 kts 338°